Location: Sungai Bunut
(2.6333°N, 113.7333°E)
Time: 08:11:10
(UTC+00:00)

Courier 1B - Pass Details

Date: 03 December 2023
Orbit: 962 x 1209 km, 28.3° (Epoch: 03 March)

Event Time Altitude Azimuth Distance (km) Brightness Sun altitude
Rises 13:23:06 0° 250° (WSW) 3,922 11.4 -44.0°
Reaches altitude 10° 13:28:43 10° 215° (SW) 3,034 10.6 -45.3°
Maximum altitude 13:30:34 11° 201° (SSW) 2,982 10.4 -45.7°
Drops below altitude 10° 13:32:27 10° 186° (S) 3,073 10.4 -46.1°
Enters shadow 13:34:21 - 173° (S) 3,300 10.4 -46.5°
